Flag for USA

Past Weather in Salem, Oregon, USA — Yesterday and Last 2 Weeks

Now
54 °F

Clear.


Feels Like: 54 °F
Forecast: 82 / 48 °F
Wind: No wind

Location: McNary Field
Current Time: Sep 29, 2020 at 5:13:08 am
Latest Report: Sep 29, 2020 at 3:56 am
Visibility: 10 mi
Pressure30.00 "Hg
Humidity: 74%
Dew Point: 46 °F
Location of SalemLocation

Past Weather in Salem — Graph

°F

Salem Temperature Yesterday

Maximum temperature yesterday: 85 °F (at 3:56 pm)
Minimum temperature yesterday: 52 °F (at 6:56 am)
Average temperature yesterday: 67 °F

High & Low Weather Summary for the Past Weeks

 TemperatureHumidityPressure
High85 °F (Sep 28, 3:56 pm)100% (Sep 19, 5:03 am)30.40 "Hg (Sep 19, 5:03 am)
Low48 °F (Sep 27, 6:24 am)25% (Sep 28, 3:56 pm)29.77 "Hg (Sep 23, 2:56 pm)
Average62 °F76%30.02 "Hg
* Reported Sep 14 3:56 am — Sep 29 3:56 am, Salem. Weather by CustomWeather, © 2020

Note: Actual official high and low records may vary slightly from our data, if they occured in-between our weather recording intervals... More about our weather records

Salem Weather History for the Previous 24 Hours

Scroll right to see more
 ConditionsComfort  
Time TempWeatherWind HumidityBarometerVisibility
3:56 am
Tue, Sep 29
54 °FClear.No wind74%30.00 "Hg10 mi
2:56 am54 °FClear.No wind74%30.01 "Hg10 mi
1:56 am53 °FClear.3 mph74%30.01 "Hg10 mi
12:56 am55 °FClear.No wind69%30.01 "Hg10 mi
11:56 pm
Mon, Sep 28
59 °FClear.No wind60%30.01 "Hg10 mi
10:56 pm60 °FClear.No wind60%30.01 "Hg10 mi
9:56 pm64 °FClear.3 mph52%30.01 "Hg10 mi
8:56 pm67 °FClear.5 mph47%30.00 "Hg10 mi
7:56 pm72 °FClear.6 mph38%30.00 "Hg10 mi
6:56 pm77 °FClear.10 mph32%30.01 "Hg10 mi
5:56 pm82 °FSunny.14 mph27%30.01 "Hg10 mi
4:56 pm84 °FSunny.18 mph26%30.03 "Hg10 mi
3:56 pm85 °FSunny.16 mph25%30.06 "Hg10 mi
2:56 pm84 °FSunny.14 mph26%30.09 "Hg10 mi
1:56 pm81 °FSunny.14 mph29%30.12 "Hg10 mi
12:56 pm79 °FSunny.15 mph31%30.16 "Hg10 mi
11:56 am75 °FSunny.14 mph36%30.19 "Hg10 mi
10:56 am71 °FSunny.16 mph39%30.20 "Hg10 mi
9:56 am66 °FSunny.12 mph47%30.22 "Hg10 mi
8:56 am62 °FSunny.7 mph56%30.22 "Hg10 mi
7:56 am56 °FSunny.No wind70%30.23 "Hg10 mi
6:56 am52 °FClear.5 mph77%30.22 "Hg10 mi
5:56 am55 °FClear.5 mph72%30.23 "Hg10 mi
Weather by CustomWeather, © 2020

See weather overview